• In Uzbekistan
  • List of Countries
  • For 7 days
  • Water Temperature
  • Satellite Maps
  • Weather Map
  • Weather Widgets
  • user-avatar
    Login

    Hourly Weather Elbasan

    Today, 23 July, Sunday

    Time Temperature Precipitation Wind Pressure Humidity
    00:00 +25°C° 0 mm 1 mps 736 mmHg 51%
    01:00 +25°C° 0 mm 1 mps 736 mmHg 51%
    02:00 +25°C° 0 mm 1 mps 736 mmHg 49%
    03:00 +25°C° 0 mm 1 mps 736 mmHg 48%
    04:00 +25°C° 0 mm 1 mps 736 mmHg 47%
    05:00 +27°C° 0 mm 1 mps 736 mmHg 44%
    06:00 +29°C° 0 mm 1 mps 736 mmHg 41%
    07:00 +31°C° 0 mm 1 mps 736 mmHg 38%
    08:00 +32°C° 0 mm 1 mps 736 mmHg 34%
    09:00 +35°C° 0 mm 2 mps 736 mmHg 31%
    10:00 +36°C° 0 mm 2 mps 736 mmHg 27%
    11:00 +37°C° 0 mm 3 mps 735 mmHg 27%
    12:00 +37°C° 0 mm 3 mps 735 mmHg 27%
    13:00 +38°C° 0 mm 3 mps 735 mmHg 28%
    14:00 +37°C° 0 mm 3 mps 735 mmHg 30%
    15:00 +37°C° 0 mm 3 mps 734 mmHg 32%
    16:00 +37°C° 0 mm 3 mps 734 mmHg 33%
    17:00 +34°C° 0 mm 2 mps 734 mmHg 41%
    18:00 +31°C° 0 mm 2 mps 734 mmHg 49%
    19:00 +28°C° 0 mm 1 mps 734 mmHg 57%
    20:00 +27°C° 0 mm 1 mps 734 mmHg 61%
    21:00 +26°C° 0 mm 1 mps 734 mmHg 64%
    22:00 +23°C° 0 mm 0 mps 734 mmHg 67%
    23:00 +25°C° 0 mm 1 mps 734 mmHg 67%

    Tomorrow, 24 July, Monday

    Time Temperature Precipitation Wind Pressure Humidity
    00:00 +24°C° 0 mm 1 mps 734 mmHg 67%
    01:00 +24°C° 0 mm 1 mps 734 mmHg 68%
    02:00 +24°C° 0 mm 1 mps 734 mmHg 67%
    03:00 +24°C° 0 mm 1 mps 733 mmHg 66%
    04:00 +23°C° 0 mm 1 mps 733 mmHg 65%
    05:00 +25°C° 0 mm 1 mps 733 mmHg 59%
    06:00 +28°C° 0 mm 1 mps 733 mmHg 53%
    07:00 +28°C° 0 mm 0 mps 733 mmHg 47%
    08:00 +31°C° 0 mm 1 mps 733 mmHg 42%
    09:00 +33°C° 0 mm 1 mps 733 mmHg 37%
    10:00 +35°C° 0 mm 2 mps 732 mmHg 31%
    11:00 +36°C° 0 mm 2 mps 732 mmHg 29%
    12:00 +37°C° 0 mm 3 mps 732 mmHg 27%
    13:00 +38°C° 0 mm 3 mps 732 mmHg 25%
    14:00 +37°C° 0 mm 3 mps 731 mmHg 26%
    15:00 +37°C° 0 mm 3 mps 730 mmHg 26%
    16:00 +37°C° 0 mm 3 mps 730 mmHg 27%
    17:00 +34°C° 0 mm 3 mps 730 mmHg 33%
    18:00 +31°C° 0 mm 2 mps 729 mmHg 40%
    19:00 +28°C° 0 mm 1 mps 729 mmHg 46%
    20:00 +27°C° 0 mm 2 mps 729 mmHg 47%
    21:00 +27°C° 0 mm 2 mps 729 mmHg 49%
    22:00 +26°C° 0 mm 3 mps 729 mmHg 50%
    23:00 +25°C° 0 mm 3 mps 729 mmHg 51%

    Day after tomorrow, 25 July, Tuesday

    Time Temperature Precipitation Wind Pressure Humidity
    00:00 +25°C° 0 mm 3 mps 729 mmHg 52%
    01:00 +24°C° 0 mm 3 mps 728 mmHg 53%
    02:00 +24°C° 0 mm 3 mps 728 mmHg 56%
    03:00 +22°C° 0 mm 3 mps 728 mmHg 59%
    04:00 +21°C° 0 mm 3 mps 728 mmHg 62%
    05:00 +24°C° 0 mm 3 mps 728 mmHg 61%
    06:00 +25°C° 0 mm 3 mps 728 mmHg 61%
    07:00 +26°C° 0 mm 3 mps 727 mmHg 61%
    08:00 +28°C° 0 mm 3 mps 727 mmHg 55%
    09:00 +29°C° 0 mm 4 mps 727 mmHg 49%
    10:00 +30°C° 0 mm 4 mps 727 mmHg 43%
    11:00 +32°C° 0 mm 5 mps 727 mmHg 41%
    12:00 +32°C° 0 mm 5 mps 727 mmHg 39%
    13:00 +33°C° 0 mm 6 mps 727 mmHg 36%
    14:00 +32°C° 0 mm 5 mps 727 mmHg 38%
    15:00 +30°C° 0 mm 5 mps 727 mmHg 40%
    16:00 +30°C° 0 mm 5 mps 727 mmHg 42%
    17:00 +28°C° 0 mm 4 mps 727 mmHg 49%
    18:00 +26°C° 0 mm 3 mps 727 mmHg 56%
    19:00 +24°C° 0 mm 2 mps 727 mmHg 63%
    20:00 +23°C° 0.1 mm 2 mps 727 mmHg 67%
    21:00 +23°C° 0.1 mm 2 mps 728 mmHg 71%
    22:00 +21°C° 0.1 mm 2 mps 728 mmHg 75%
    23:00 +20°C° 0 mm 2 mps 728 mmHg 75%

    26 July, Wednesday

    Time Temperature Precipitation Wind Pressure Humidity
    00:00 +20°C° 0 mm 2 mps 728 mmHg 76%
    01:00 +20°C° 0 mm 2 mps 728 mmHg 77%
    02:00 +19°C° 0 mm 2 mps 728 mmHg 77%
    03:00 +19°C° 0 mm 2 mps 728 mmHg 77%
    04:00 +19°C° 0 mm 2 mps 727 mmHg 78%
    05:00 +21°C° 0 mm 2 mps 728 mmHg 71%
    06:00 +24°C° 0 mm 2 mps 728 mmHg 65%
    07:00 +25°C° 0 mm 2 mps 728 mmHg 59%
    08:00 +27°C° 0 mm 2 mps 728 mmHg 52%
    09:00 +29°C° 0 mm 2 mps 728 mmHg 46%
    10:00 +30°C° 0 mm 3 mps 728 mmHg 40%
    11:00 +30°C° 0.1 mm 3 mps 728 mmHg 42%
    12:00 +30°C° 0.1 mm 4 mps 727 mmHg 44%
    13:00 +29°C° 0.1 mm 4 mps 727 mmHg 46%
    14:00 +29°C° 0.5 mm 4 mps 727 mmHg 49%
    15:00 +28°C° 0.5 mm 4 mps 727 mmHg 52%
    16:00 +28°C° 0.5 mm 3 mps 727 mmHg 55%
    17:00 +26°C° 0.4 mm 3 mps 727 mmHg 62%
    18:00 +25°C° 0.4 mm 2 mps 727 mmHg 69%
    19:00 +23°C° 0.4 mm 2 mps 727 mmHg 76%
    20:00 +21°C° 0.3 mm 2 mps 728 mmHg 79%
    21:00 +21°C° 0.3 mm 1 mps 728 mmHg 82%
    22:00 +21°C° 0.3 mm 1 mps 728 mmHg 85%
    23:00 +20°C° 0 mm 1 mps 728 mmHg 85%

    27 July, Thursday

    Time Temperature Precipitation Wind Pressure Humidity
    00:00 +20°C° 0 mm 1 mps 728 mmHg 85%
    01:00 +20°C° 0 mm 1 mps 728 mmHg 86%
    02:00 +19°C° 0.1 mm 1 mps 728 mmHg 86%
    03:00 +19°C° 0.1 mm 1 mps 728 mmHg 86%
    04:00 +19°C° 0.1 mm 1 mps 728 mmHg 86%
    05:00 +21°C° 0.1 mm 1 mps 728 mmHg 80%
    06:00 +22°C° 0.1 mm 1 mps 728 mmHg 74%
    07:00 +22°C° 0.1 mm 0 mps 729 mmHg 67%
    08:00 +25°C° 0.6 mm 1 mps 729 mmHg 63%
    09:00 +26°C° 0.6 mm 2 mps 729 mmHg 58%
    10:00 +27°C° 0.6 mm 3 mps 729 mmHg 53%
    11:00 +27°C° 1 mm 3 mps 729 mmHg 53%
    12:00 +28°C° 1 mm 3 mps 729 mmHg 52%
    13:00 +28°C° 1 mm 3 mps 729 mmHg 51%
    14:00 +27°C° 1.1 mm 3 mps 729 mmHg 55%
    15:00 +26°C° 1.1 mm 3 mps 729 mmHg 59%
    16:00 +26°C° 1.1 mm 3 mps 729 mmHg 62%
    17:00 +24°C° 1 mm 3 mps 729 mmHg 68%
    18:00 +23°C° 1 mm 2 mps 730 mmHg 73%
    19:00 +21°C° 1 mm 2 mps 730 mmHg 79%
    20:00 +20°C° 0.2 mm 2 mps 730 mmHg 81%
    21:00 +20°C° 0.2 mm 2 mps 730 mmHg 83%
    22:00 +19°C° 0.2 mm 2 mps 731 mmHg 85%
    23:00 +19°C° 0 mm 2 mps 731 mmHg 85%

    28 July, Friday

    Time Temperature Precipitation Wind Pressure Humidity
    00:00 +18°C° 0 mm 2 mps 731 mmHg 84%
    01:00 +18°C° 0 mm 2 mps 731 mmHg 84%
    02:00 +18°C° 0 mm 2 mps 731 mmHg 82%
    03:00 +18°C° 0 mm 2 mps 731 mmHg 81%
    04:00 +18°C° 0 mm 2 mps 732 mmHg 80%
    05:00 +19°C° 0 mm 2 mps 732 mmHg 74%
    06:00 +22°C° 0 mm 1 mps 732 mmHg 67%
    07:00 +24°C° 0 mm 1 mps 733 mmHg 61%
    08:00 +26°C° 0 mm 2 mps 733 mmHg 55%
    09:00 +27°C° 0 mm 2 mps 733 mmHg 48%
    10:00 +29°C° 0 mm 2 mps 733 mmHg 41%
    11:00 +30°C° 0 mm 3 mps 733 mmHg 40%
    12:00 +30°C° 0 mm 3 mps 733 mmHg 39%
    13:00 +32°C° 0 mm 4 mps 734 mmHg 37%
    14:00 +32°C° 0 mm 4 mps 734 mmHg 38%
    15:00 +30°C° 0 mm 4 mps 734 mmHg 38%
    16:00 +30°C° 0 mm 4 mps 734 mmHg 39%
    17:00 +28°C° 0 mm 3 mps 734 mmHg 46%
    18:00 +26°C° 0 mm 2 mps 734 mmHg 53%
    19:00 +24°C° 0 mm 2 mps 734 mmHg 60%
    20:00 +23°C° 0 mm 1 mps 735 mmHg 63%
    21:00 +22°C° 0 mm 1 mps 735 mmHg 65%
    22:00 +21°C° 0 mm 1 mps 736 mmHg 68%
    23:00 +21°C° 0 mm 1 mps 736 mmHg 67%
    Show more